TimeCST,TemperatureF,Dew PointF,Humidity,Sea Level PressureIn,VisibilityMPH,Wind Direction,Wind SpeedMPH,Gust SpeedMPH,PrecipitationIn,Events,Conditions,WindDirDegrees,DateUTC
12:52 AM,23.0,19.9,88,29.77,10.0,South,3.5,-,N/A,,Clear,170,2013-02-23 06:52:00
1:52 AM,18.0,17.1,96,29.75,9.0,Calm,Calm,-,N/A,,Clear,0,2013-02-23 07:52:00
2:52 AM,19.9,17.1,89,29.73,10.0,Calm,Calm,-,N/A,,Clear,0,2013-02-23 08:52:00
3:52 AM,19.0,16.0,88,29.70,10.0,Calm,Calm,-,N/A,,Clear,0,2013-02-23 09:52:00
4:52 AM,19.0,16.0,88,29.69,10.0,Calm,Calm,-,N/A,,Clear,0,2013-02-23 10:52:00
5:52 AM,18.0,15.1,88,29.69,10.0,Calm,Calm,-,N/A,,Clear,0,2013-02-23 11:52:00
6:52 AM,19.9,16.0,85,29.69,10.0,SSW,3.5,-,N/A,,Partly Cloudy,200,2013-02-23 12:52:00
7:52 AM,16.0,15.1,96,29.69,8.0,Calm,Calm,-,N/A,,Scattered Clouds,0,2013-02-23 13:52:00
8:52 AM,21.0,17.1,85,29.68,10.0,Calm,Calm,-,N/A,,Mostly Cloudy,0,2013-02-23 14:52:00
9:52 AM,26.1,18.0,71,29.68,10.0,SSE,6.9,-,N/A,,Scattered Clouds,160,2013-02-23 15:52:00
10:52 AM,30.0,19.0,64,29.68,10.0,South,5.8,-,N/A,,Scattered Clouds,170,2013-02-23 16:52:00
11:52 AM,32.0,21.0,64,29.68,10.0,SE,6.9,-,N/A,,Partly Cloudy,140,2013-02-23 17:52:00
12:52 PM,35.1,24.1,64,29.67,10.0,SSE,8.1,-,N/A,,Scattered Clouds,150,2013-02-23 18:52:00
1:52 PM,36.0,24.1,62,29.68,10.0,SSW,5.8,-,N/A,,Partly Cloudy,200,2013-02-23 19:52:00
2:52 PM,37.0,26.1,65,29.68,10.0,SW,5.8,-,N/A,,Overcast,230,2013-02-23 20:52:00
3:52 PM,37.9,26.1,62,29.69,10.0,SW,3.5,-,N/A,,Mostly Cloudy,230,2013-02-23 21:52:00
4:52 PM,37.9,27.0,65,29.71,10.0,WSW,4.6,-,N/A,,Clear,240,2013-02-23 22:52:00
5:52 PM,36.0,28.9,76,29.74,10.0,Calm,Calm,-,N/A,,Mostly Cloudy,0,2013-02-23 23:52:00
6:52 PM,35.1,28.0,76,29.76,10.0,West,4.6,-,N/A,,Overcast,270,2013-02-24 00:52:00
7:52 PM,33.1,28.9,85,29.79,10.0,West,4.6,-,N/A,,Overcast,280,2013-02-24 01:52:00
8:52 PM,33.1,28.9,85,29.81,10.0,South,3.5,-,N/A,,Scattered Clouds,190,2013-02-24 02:52:00
9:52 PM,32.0,28.0,85,29.83,10.0,West,6.9,-,N/A,,Mostly Cloudy,260,2013-02-24 03:52:00
10:52 PM,32.0,27.0,82,29.84,10.0,WNW,3.5,-,N/A,,Clear,300,2013-02-24 04:52:00
11:52 PM,30.0,26.1,85,29.85,10.0,SW,3.5,-,N/A,,Partly Cloudy,220,2013-02-24 05:52:00